TL TrainLive
Get the app
54810

JU-RE PASSEN

Pass

JU → RE · 01:10 – 14:45 · 13h 35m · 543 km

Live running status
14 min late, between Ladnun and Sujangarh
47% of the run · 34 km/h

Route & timetable

64 stops
# Station Arr Dep Halt km Day PF
1 Jodhpur Junction JU 01:10 01:10 0 1
2 RAIKA BAGH RKB 01:16 01:18 2m 2 1
3 BANAR BNO 01:31 01:32 1m 14 1
4 JAJIWAL JWL 01:41 01:42 1m 22 1
5 ASRANADA AAS 01:51 01:52 1m 31 1
6 KHERI SALWA KSW 02:01 02:02 1m 40 1
7 PIPAR ROAD JN PPR 02:08 02:10 2m 47 1
8 SATHIN ROAD SWF 02:20 02:21 1m 55 1
9 UMED UMED 02:30 02:31 1m 66 1
10 KHARIA KHANGARH KXG 02:42 02:43 1m 77 1
11 GOTAN GOTN 02:50 02:52 2m 83 1
12 JOGI MAGRA JOM 03:02 03:03 1m 93 1
13 MERTA ROAD JN MTD 04:15 04:20 5m 104 1
14 KHEDULI KQW 04:29 04:30 1m 114 1
15 REN REN 04:37 04:39 2m 121 1
16 JALSU JAC 04:53 04:54 1m 136 1
17 JALSU NANAK JACN 05:01 05:03 2m 141 1
18 DEGANA JN DNA 05:12 05:15 3m 148 1
19 Kiroda KRC 05:26 05:27 1m 161 1
20 Khatu KHTU 05:36 05:37 1m 173 1
21 Choti Khatu CTKT 05:45 05:46 1m 179 1
22 Pirwa PW 05:59 06:00 1m 192 1
23 Khunkhuna KKNA 06:07 06:08 1m 198 1
24 Marwar Balia MBSK 06:24 06:25 1m 209 1
25 Didwana DIA 06:32 06:33 1m 214 1
26 Sanvrad SVO 06:45 06:46 1m 227 1
27 Balsamand BLSD 06:55 06:56 1m 236 1
28 Ladnun LAU 07:05 07:07 2m 245 1
29 Sujangarh SUJH 07:26 07:28 2m 255 1
30 Talchhapar TLC 07:42 07:43 1m 268 1
31 Parhihara PIH 07:54 07:55 1m 281 1
32 Loha LOHA 08:06 08:07 1m 292 1
33 Ratangarh Junction RTGH 08:35 08:55 20m 301 1
34 Molisar MIO 09:09 09:10 1m 318 1
35 Shri Makri Nath Nagar SMNN 09:16 09:17 1m 323 1
36 Juharpura JOH 09:22 09:23 1m 327 1
37 Depalsar DEP 09:31 09:33 2m 336 1
38 Churu CUR 09:45 09:55 10m 344 1
39 Aslu ASLU 10:07 10:08 1m 358 1
40 Sirsala SRSL 10:16 10:18 2m 367 1
41 Dudhwakhara DKX 10:23 10:25 2m 372 1
42 Hadyal HYL 10:38 10:39 1m 385 1
43 Dokwa DKWA 10:47 10:48 1m 393 1
44 Sadulpur Junction SDLP 10:58 11:05 7m 401 1
45 Kandharan Halt KDHN 11:14 11:15 1m 411 1
46 Harpalu HR 11:21 11:22 1m 415 1
47 Bewar Bhojan BWBN 11:30 11:31 1m 423 1
48 Gugalwa Kirtan GLKN 11:36 11:37 1m 426 1
49 Rampura Beri RMB 11:43 11:44 1m 430 1
50 Parvezpur PVZ 11:53 11:54 1m 440 1
51 Kushal Pura KLSP 12:00 12:01 1m 444 1
52 Loharu LHU 12:10 12:15 5m 451 1
53 Sohansra SAWN 12:21 12:22 1m 457 1
54 Satnali STNL 12:31 12:33 2m 468 1
55 Nanwan NWN 12:40 12:41 1m 473 1
56 Nangal Degrota NDRT 12:47 12:49 2m 479 1
57 Zarpur Pali ZP 12:55 12:57 2m 484 1
58 Mahendragarh MHRG 13:08 13:10 2m 492 1
59 Bojawas BJWS 13:22 13:23 1m 499 1
60 Gurha Kemla GRKA 13:29 13:30 1m 504 1
61 Kanina Khas KNNK 13:36 13:37 1m 508 1
62 Dahina Zainabad DZB 13:46 13:48 2m 518 1
63 Nangal Mundi NNU 13:59 14:00 1m 530 1
64 REWARI RE 14:45 14:45 543 1

Service details

Type
Pass
Distance
543 km
Duration
13h 35m
Avg speed
40 km/h
Pantry car
Not published
Classes
Not published
Runs on
Not published

Coach position

Order from the engine.

SLR
Luggage / Guard
ENG
Locomotive
SLR
Luggage / Guard

Rake composition can change at short notice. Confirm on the station display board.